Location: Coed Ely
(51.5661°N, 3.4150°W)
Time: 19:12:47
(UTC+00:00)

COSMOS 2455 - Pass Details

Date: 28 January 2021
Orbit: 901 x 908 km, 67.1° (Epoch: 27 February)

Event Time Altitude Azimuth Distance (km) Brightness Sun altitude
Rises 18:12:59 0° 242° (WSW) 3,529 7.7 -11.9°
Reaches altitude 10° 18:15:37 10° 250° (WSW) 2,591 6.7 -12.3°
Maximum altitude 18:21:19 43° 321° (NW) 1,268 3.8 -13.2°
Drops below altitude 10° 18:27:03 10° 32° (NNE) 2,604 4.8 -14.1°
Enters shadow 18:27:31 - 33° (NNE) 2,765 5.0 -14.1°
